CYIO

Pond Inlet Airport

Airport
ICAO code
CYIO
Summary
ICAO Region
NAM
ICAO Territory
Location

Pond Inlet, Nunavut,

Coordinates
72° 42' 0" N , 77° 57' 31" W
KCC
Airport BS
Non Avian Wildlife Hazards to Aircraft
Airport CFIT
Altimeter Temperature Error Correction
Airport GND
Aircraft Ground De/Anti Icing
Airport WX
Fog
Metar
CYIO 201700Z AUTO VRB02KT 7SM CLR M25/M28 A2971 RMK SLP075

Description

Airport serving Pond Inlet, Nunavut, Canada, operated by the government of Nunavut

Climatology

Tundra climate (Köppen climate classification ET) - warmest month has an average temperature of 0 - 10 degrees C.

Runways

Designator Length Width Surface Rops
02T/20T 1219 30 GVL No/No

Airport map

Aerial View

SKYbrary Partners:

Safety knowledge contributed by: